AirNav   Everest Fuels
 
 973 users online  

7CA9 River Meadow Farm Heliport
Rutherford, California, USA

GOING TO RUTHERFORD?


FAA INFORMATION EFFECTIVE 22 APRIL 2021

Location

FAA Identifier: 7CA9
Lat/Long: 38-27-45.6000N 122-24-52.8000W
38-27.760000N 122-24.880000W
38.4626667,-122.4146667
(estimated)
Elevation: 146 ft. / 45 m (estimated)
Variation: 16E (1985)
From city: 1 mile SE of RUTHERFORD, CA
Time zone: UTC -7 (UTC -8 during Standard Time)
Zip code: 94558

Heliport Operations

Heliport use: Private use. Permission required prior to landing
Activation date: 01/1979
Control tower: no
ARTCC: OAKLAND CENTER
FSS: OAKLAND FLIGHT SERVICE STATION
Attendance: UNATNDD
Wind indicator: yes
Segmented circle: no

Heliport Communications

WX AWOS-3P at O69 (15 nm SW): 132.325 (707-773-1529)
WX ASOS at APC (16 nm SE): PHONE 707-252-7916
WX ASOS at STS (19 nm W): 120.55 (707-573-8393)

Nearby radio navigation aids

VOR radial/distance  VOR name  Freq  Var
SGDr336/17.1SCAGGS ISLAND VORTAC112.1017E
STSr082/18.8SANTA ROSA VOR/DME113.0016E
CCRr308/30.5CONCORD VOR/DME117.0017E
PYEr026/31.4POINT REYES VOR/DME113.7017E
SAUr351/36.8SAUSALITO VOR/DME116.2017E

Heliport Services

Runway Information

Helipad H1

Dimensions: 65 x 65 ft. / 20 x 20 m
Surface: concrete
Latitude: 38-27.760000N
Longitude: 122-24.880000W
Elevation: 146.0 ft.
Traffic pattern: leftleft

Heliport Ownership and Management from official FAA records

Ownership: Privately-owned
Owner: DIANE WILSEY
2590 JACKSON STREET
SAN FRANCISCO, CA 94115
Phone 415-922-2875

Heliport Operational Statistics

Aircraft based on the field: 1
Helicopters: 1
    

Additional Remarks

FOR CD CTC OAKLAND ARTCC AT 510-745-3380.

Instrument Procedures

There are no published instrument procedures at 7CA9.

Some nearby airports with instrument procedures:

O69 - Petaluma Municipal Airport (15 nm SW)
KAPC - Napa County Airport (16 nm SE)
KSTS - Charles M Schulz - Sonoma County Airport (19 nm W)
KDVO - Gnoss Field Airport (20 nm S)
KVCB - Nut Tree Airport (22 nm E)
 
Loc | Ops | Rwys | IFR | FBO | Links
Com | Nav | Svcs | Stats | Notes

Sonoma Jet Center
 
Area around 7CA9 (River Meadow Farm Heliport)
 
Road maps at: MapQuest Bing Google
 
Aerial photo
No photo
 
Sectional chart

 
Airport distance calculator
Flying to River Meadow Farm Heliport? Find the distance to fly.

From to 7CA9

Sunrise and sunset
Times for 11-May-2021
 Local
(UTC-7)
 Zulu
(UTC)
Morning civil twilight05:3312:33
Sunrise06:0313:03
Sunset20:0903:09
Evening civil twilight20:3903:39

Current date and time
Zulu (UTC)  12-May-2021 02:23:58
Local (UTC-7)  11-May-2021 19:23:58
 
METAR
KO69 
15nm SW 
120155Z AUTO 29009KT 10SM CLR 18/09 A2990 RMK A01
KAPC 
17nm S 
120154Z 19009KT 10SM CLR 19/12 A2988 RMK AO2 SLP108 T01940122
KSTS 
19nm W 
707-573-8393
120153Z 16010KT 8SM CLR 20/09 A2988 RMK AO2 SLP112 T02000094
KDVO 
20nm S 
120155Z AUTO 35013KT 10SM CLR 22/08 A2987 RMK AO2
KVCB 
22nm E 
120153Z AUTO 24011KT 10SM CLR 31/03 A2983 RMK AO2 SLP101 T03060028
KSUU 
26nm SE 
112358Z AUTO 24014KT 10SM CLR 35/M03 A2983 RMK AO2 SLP108 T03461029 10365 20306 57011 $
KDWA 
27nm E 
120155Z AUTO 19006KT 10SM CLR 33/M01 A2983 RMK AO2
KEDU 
30nm E 
120155Z AUTO 21007KT 10SM CLR 32/02 A2982 RMK AO1
TAF
KAPC 
17nm S 
111721Z 1118/1218 20008KT P6SM SKC FM112200 22014KT P6SM SKC FM120300 20006KT P6SM SKC FM120800 VRB04KT P6SM FEW008 FM121500 24007KT P6SM FEW015
KSTS 
19nm W 
111721Z 1118/1218 VRB05KT P6SM SKC FM112100 19009KT P6SM SKC FM120300 VRB04KT P6SM SKC FM121000 00000KT 5SM BR SKC TEMPO 1212/1216 2SM BR
NOTAMs
Click for the latest NOTAMs
NOTAMs are issued by the DoD/FAA and will open in a separate window not controlled by AirNav.

 

 
 

Would you like to see your business listed on this page?

 If your business provides an interesting product or service to pilots, flight crews, aircraft, or users of the River Meadow Farm Heliport, you should consider listing it here.  To start the listing process, click on the button below
 
Add a business
 

Other Pages about River Meadow Farm Heliport

Update a link
 
Copyright © AirNav, LLC. All rights reserved. Privacy Policy  Contact